Weather Roundup
Issued by NWS

Home | Current Version | Previous Version | Text Only | Print | Product List | Glossary On
Versions: 1 2 3 4 5 6 7 8 9 10 11 12 13 14 15 16 17 18 19 20 21 22 23 24 25 26 27 28 29 30 31 32 33 34 35 36 37 38 39 40 41 42 43 44 45 46 47 48 49 50
000
NZUS93 KARX 220659
HRRWXR

CURRENT HOURLY OBSERVATIONS ACROSS
MUCH OF THE UPPER MISSISSIPPI VALLEY
NATIONAL WEATHER SERVICE LA CROSSE WI
200 AM CDT SAT JUL 22 2017


...SOUTHEAST MINNESOTA...


CITY           SKY/WX    TMP DP  RH WIND       PRES   REMARKS
ROCHESTER      CLOUDY    68  68 100 E10       29.85S FOG
ROCHESTER/MAYO CLOUDY    69  69 100 E6        29.85S
WINONA         CLOUDY    70  66  88 S3        29.82F
AUSTIN         CLOUDY    70  66  88 E12       29.84S
ALBERT LEA     CLOUDY    70  66  88 NE8       29.84S
DODGE CENTER   CLOUDY    68  66  94 NE8G16    29.86S
PRESTON        FOG       68  66  94 NE7       29.85F VSB 1/2
OWATONNA       PTCLDY    70  66  88 E12       29.84S
FARIBAULT      CLEAR     70  66  88 E8        29.83F
$$

...ELSEWHERE IN MINNESOTA...


CITY           SKY/WX    TMP DP  RH WIND       PRES   REMARKS
MINNEAPOLIS    CLOUDY    71  65  81 SE7       29.78F
INTNL FALLS    PTCLDY    53  53 100 CALM      29.81S
DULUTH         CLOUDY    59  59 100 N6        29.80S
RED WING       CLEAR     70  64  83 S6        29.78F
REDWOOD FALLS  CLOUDY    71  67  87 SE7       29.81R
MANKATO        PTCLDY    70  68  93 E10       29.82R
WORTHINGTON    CLOUDY    72  70  93 E8        29.85R
FAIRMONT       CLOUDY    72  70  93 E10       29.84R
$$

...SOUTHWEST WISCONSIN...


CITY           SKY/WX    TMP DP  RH WIND       PRES   REMARKS
LA CROSSE      CLOUDY    73  70  90 E3        29.83F
PRAIRIE DU CHI CLOUDY    71  70  96 CALM      29.81R
BOSCOBEL       CLOUDY    72  70  93 NE6       29.80F
LONE ROCK      NOT AVBL
PLATTEVILLE    CLOUDY    70  70 100 SE12      29.80F
FORT MC COY    CLOUDY    66  66  99 N3        29.85F
CAMP DOUGLAS   CLOUDY    70  70 100 NE3       29.84F
MAUSTON-NEW LI CLOUDY    69  68  96 E3        29.83F FOG
VIROQUA        CLOUDY    69  69 100 E7        29.86S
WIS DELLS      CLOUDY    65  64  94 E5        29.84F
$$

...ELSEWHERE IN WISCONSIN...


CITY           SKY/WX    TMP DP  RH WIND       PRES   REMARKS
MILWAUKEE      LGT RAIN  69  67  93 NE5       29.85F
MADISON        CLOUDY    66  65  96 E7        29.81F FOG
GREEN BAY      CLOUDY    70  63  78 S8        29.87S
EAU CLAIRE     NOT AVBL
BLACK RVR FLS  FAIR      67  67 100 CALM      29.82F FOG
MEDFORD        CLOUDY    65  64  97 S6        29.83F
WAUSAU         CLOUDY    66  63  90 SE5       29.80F
WIS RAPIDS     CLOUDY    67  66  97 E5        29.85F
MARSHFIELD     FOG       66  64  93 SE7       29.81F VSB 1/2
RICE LAKE      CLOUDY    64  63  94 E7        29.77F
$$

...NORTHEAST IOWA...


CITY           SKY/WX    TMP DP  RH WIND       PRES   REMARKS
WATERLOO       CLOUDY    73  70  90 NE12      29.80R
DUBUQUE        TSTM      69  69 100 W12       29.82F FOG
DECORAH        CLOUDY    72  70  94 E6        29.82S
MASON CITY     CLOUDY    71  69  93 NE9       29.82S
CHARLES CITY   CLOUDY    72  72 100 E9        29.82F
OELWEIN        HVY RAIN  70  70 100 S12       29.84F VSB 3/4
$$

...ELSEWHERE IN IOWA...


CITY           SKY/WX    TMP DP  RH WIND       PRES   REMARKS
DES MOINES     CLOUDY    86  73  65 SW10      29.72R HX  93
IOWA CITY      CLOUDY    79  74  84 N17       29.80R
FORT DODGE     CLOUDY    72  70  94 E8        29.79S
MARSHALLTOWN   CLOUDY    75  74  96 E13       29.77R
CEDAR RAPIDS   CLOUDY    75  74  96 NE18G24   29.80R
$$

...NORTHERN ILLINOIS...


CITY           SKY/WX    TMP DP  RH WIND       PRES   REMARKS
CHICAGO-OHARE  TSTM      73  70  90 S10       29.82F
CHICAGO-MIDWAY TSTM      74  72  93 SW7       29.84S
MOLINE         CLOUDY    74  67  78 NE18      29.83R THUNDER
ROCKFORD       TSTM      73  67  81 W9        29.86R
PEORIA         CLOUDY    82  74  76 SE6       29.80F
$$

NOTE: "FAIR" INDICATES FEW OR NO CLOUDS BELOW 12,000 FEET WITH NO
SIGNIFICANT WEATHER AND/OR OBSTRUCTIONS TO VISIBILITY. WIND
SPEEDS ARE IN MILES-PER-HOUR.




USA.gov is the U.S. government's official web portal to all federal, state and local government web resources and services.